Terminal Aerodrome Forecast
Issued by NWS

Home | Current Version | Previous Version | Graphics & Text | Print | Product List | Glossary On
Versions: 1 2 3 4 5 6 7 8 9 10 11 12 13 14 15 16 17 18 19 20
000
FTUS43 KOAX 171700
TAFCDR
TAF
KCDR 171721Z 1718/1818 21012KT P6SM BKN020
     FM172000 18013G23KT P6SM SCT030
     FM180500 18016G32KT P6SM SCT150
     FM181500 20012G22KT P6SM SCT050=

USA.gov is the U.S. government's official web portal to all federal, state and local government web resources and services.